Location: Hamburg
(53.5500°N, 10.0000°E)
Time: 18:53:18
(UTC+02:00)

ISS - Visible Passes

Search period start: 24 October 2014 00:00
Search period end: 02 November 2014 23:00
Orbit: 412 x 416 km, 51.6° (Epoch: 24 October)

Date Brightness Start Highest point End Pass type
(mag) Time Alt. Az. Time Alt. Az. Time Alt. Az.
24 Oct -1.1 19:26:31 10° W 19:29:13 23° SSW 19:31:54 10° SSE visible
25 Oct -1.5 18:37:12 10° W 18:40:11 30° SSW 18:43:09 10° SE visible
26 Oct -0.3 18:25:36 10° WSW 18:27:07 13° SW 18:28:37 10° SSW visible
27 Oct -0.4 17:35:44 10° WSW 17:38:05 18° SW 17:40:25 10° S visible
